See reports from other nearby stations

Tides Pressure Air temp Water temp Dewpoint Dewpoint depression Visibility Wind speed Wind direction Waves Ship positions

no recent reports received from weather station ID 62114

sailing weather and tide predictions

Current Weather: station 62114

date/time (UTC)wind fromknots sea level pressurealtimeterstation pressurevisibilityair tempwater tempwave heightnotes
2014-Apr-25 03:00 110 12 7.0
2014-Apr-25 02:00 110 13 7.0
2014-Apr-25 01:00 110 12 7.1
2014-Apr-25 00:00 130 15 7.1
2014-Apr-24 23:00 120 16 7.2
2014-Apr-24 22:00 120 16 7.2
2014-Apr-24 21:00 130 17 7.2
2014-Apr-24 20:00 130 17 7.1
2014-Apr-24 19:00 120 19 7.1
2014-Apr-24 18:00 120 19 7.3
2014-Apr-24 17:00 120 19 7.3
2014-Apr-24 16:00 130 20 7.5
2014-Apr-24 15:00 120 20 7.4
2014-Apr-24 14:00 120 20 7.5
2014-Apr-24 13:00 120 20 7.7
2014-Apr-24 12:00 130 22 7.8
2014-Apr-24 11:00 120 20 7.8
2014-Apr-24 10:00 120 19 7.7
2014-Apr-24 09:00 120 18 7.8
2014-Apr-24 08:00 130 20 7.6
2014-Apr-24 07:00 120 20 7.6
2014-Apr-24 06:00 120 20 7.8
2014-Apr-24 05:00 130 24 7.9
2014-Apr-24 04:00 120 20 7.8
2014-Apr-24 03:00 130 20 7.3
2014-Apr-24 02:00 130 20 7.2
2014-Apr-24 01:00 130 20 7.2
2014-Apr-24 00:00 140 23 7.3
2014-Apr-23 23:00 130 22 7.6
2014-Apr-23 22:00 140 23 7.7
2014-Apr-23 21:00 130 24 7.9
2014-Apr-23 20:00 130 22 8.0
2014-Apr-23 19:00 120 19 7.8
2014-Apr-23 18:00 120 18 7.8
2014-Apr-23 17:00 120 18 8.1
2014-Apr-23 16:00 120 18 8.1
2014-Apr-23 15:00 120 16 7.7
2014-Apr-23 14:00 120 16 7.7
2014-Apr-23 13:00 120 15 7.5
2014-Apr-23 12:00 130 14 7.4
2014-Apr-23 11:00 110 14 7.3
2014-Apr-23 10:00 130 14 7.1
2014-Apr-23 09:00 110 13 7.2
2014-Apr-23 08:00 140 13 7.2
2014-Apr-23 07:00 120 14 7.6
2014-Apr-23 06:00 120 14 7.7
2014-Apr-23 05:00 110 13 8.2